Location: Melizzano
(41.1500°N, 14.5000°E)
Time: 16:59:31
(UTC+00:00)

Cosmos 1709 Rocket - Visible Passes

Search period start: 26 September 2021 00:00
Search period end: 06 October 2021 00:00
Orbit: 947 x 1002 km, 82.9° (Epoch: 26 September)

Date Brightness Start Highest point End Pass type
(mag) Time Alt. Az. Time Alt. Az. Time Alt. Az.
26 Sep 4.5 03:36:25 10° N 03:42:30 63° E 03:48:34 10° SSE visible
26 Sep 4.8 17:05:49 10° SSW 17:11:56 60° W 17:18:01 10° N visible
27 Sep 6.7 02:17:55 10° NNE 02:21:42 17° ENE 02:25:28 10° ESE visible
27 Sep 3.9 04:01:37 10° N 04:07:42 73° W 04:13:49 10° S visible
27 Sep 5.9 17:31:49 10° SW 17:37:20 33° WNW 17:42:50 10° N visible
28 Sep 5.8 02:42:02 10° NNE 02:47:19 30° ENE 02:52:36 10° SE visible
28 Sep 4.4 04:27:08 10° NNW 04:32:45 40° W 04:38:24 10° SSW visible
28 Sep 6.8 17:58:43 10° WSW 18:02:55 19° WNW 18:07:07 10° NNW visible
29 Sep 4.7 03:06:47 10° N 03:12:45 53° E 03:18:44 10° SSE visible
30 Sep 6.8 01:48:45 10° NE 01:51:50 14° ENE 01:54:54 10° E visible
30 Sep 3.9 03:31:52 10° N 03:38:00 86° W 03:44:11 10° S visible
30 Sep 5.7 17:01:50 10° SW 17:07:33 39° WNW 17:13:15 10° N visible
01 Oct 6.0 02:12:32 10° NNE 02:17:31 25° ENE 02:22:30 10° SE visible
01 Oct 4.2 03:57:16 10° NNW 04:03:06 47° W 04:08:58 10° SSW visible
01 Oct 6.7 17:28:26 10° WSW 17:33:05 22° WNW 17:37:43 10° NNW visible
02 Oct 5.0 02:37:08 10° N 02:43:00 45° ENE 02:48:52 10° SSE visible
02 Oct 4.8 04:23:06 10° NNW 04:28:02 26° W 04:33:00 10° SW visible
02 Oct 7.1 17:56:39 10° W 17:58:49 12° WNW 18:00:59 10° NW visible
03 Oct 6.8 01:19:54 10° NE 01:21:57 12° ENE 01:23:59 10° E visible
03 Oct 4.0 03:02:08 10° N 03:08:17 81° E 03:14:29 10° S visible
04 Oct 6.2 01:43:05 10° NNE 01:47:41 22° ENE 01:52:18 10° ESE visible
04 Oct 4.0 03:27:28 10° NNW 03:33:27 56° W 03:39:27 10° SSW visible
04 Oct 6.5 16:58:15 10° SW 17:03:15 26° WNW 17:08:16 10° NNW visible
05 Oct 5.2 02:07:32 10° N 02:13:13 38° ENE 02:18:56 10° SE visible
05 Oct 4.6 03:53:09 10° NNW 03:58:25 31° W 04:03:44 10° SSW visible
05 Oct 6.8 17:25:47 10° W 17:28:56 14° WNW 17:32:05 10° NW visible
